[[{"header":{"parameterUnit":"m.s-1","parameterCategory":1,"la1":30.2991,"la2":30.254,"lo1":-89.0895,"lo2":-89.0444,"dy":0.0017,"dx":0.0017,"nx":28,"ny":28,"refTime":"2025-08-22T03:00:00:Z","depth":0,"parameterNumber":2,"parameterNumberName":"U-component_of_WINDS"},"data":[0,0,0,0,0,0,0,0,0,0,0,0,0,0,0,0,0,0,0,0,0,0,0,0,0,0,0,0,0,0,0,0,0,0,0,0,0,0,0,0,0,0,0,0,0,0,0,0,0,0,0,0,0,0,0,0,0,0,1.3009,1.301,0,1.3067,1.3067,1.3068,1.3086,1.3085,1.3085,1.3085,1.314,1.3142,1.3144,0,0,0,0,0,0,0,0,0,0,0,0,0,1.2911,1.2913,1.3009,1.301,1.3011,1.3067,1.3067,1.3068,1.3086,1.3085,1.3085,1.3085,1.314,1.3142,1.3144,0,0,0,0,0,0,0,0,0,0,0,0,0,1.296,1.2914,1.3009,1.3026,1.3028,1.3067,1.3068,1.3068,1.3086,1.3085,1.3085,1.3084,1.3139,1.3142,1.3144,1.3169,0,0,1.3152,1.3153,0,0,0,0,0,0,0,0,1.2957,1.2963,1.3023,1.3025,1.3028,1.3069,1.3053,1.3102,1.3086,1.3064,1.3085,1.3084,1.3117,1.3121,1.3133,1.3171,1.3174,1.3153,1.3154,1.3155,1.3156,0,0,0,0,0,0,0,1.2954,1.2961,1.3032,1.3024,1.3027,1.303,1.3036,1.3063,1.3092,1.3066,1.3067,1.3074,1.3118,1.313,1.3134,1.3175,1.3152,1.3155,1.3156,1.3157,1.3235,1.3236,0,0,0,0,0,0,1.2948,1.2958,1.303,1.3034,1.2991,1.3032,1.3039,1.3056,1.3092,1.3097,1.3074,1.3074,1.3126,1.3131,1.3136,1.3167,1.3155,1.3158,1.3159,1.3235,1.3235,1.3236,0,0,0,0,0,0,1.2946,1.2954,1.3028,1.2996,1.3006,1.3034,1.3053,1.3057,1.307,1.3098,1.3103,1.3082,1.3126,1.3133,1.3161,1.3169,1.3159,1.3161,1.3234,1.3235,1.3236,1.3228,0,0,0,0,0,0,1.2943,1.2953,1.2964,1.2996,1.3008,1.3052,1.3053,1.3059,1.3074,1.3075,1.3106,1.3111,1.3126,1.3157,1.3163,1.3172,1.3163,1.3234,1.3234,1.3235,1.3228,1.3228,1.3229,0,0,0,0,0,1.2939,1.2959,1.2964,1.2973,1.3021,1.3053,1.3059,1.3077,1.3075,1.3085,1.3103,1.311,1.3167,1.3159,1.3167,1.3177,1.3233,1.3234,1.3235,1.3227,1.3228,1.3229,0,0,0,0,0,0,1.2925,1.2963,1.297,1.3001,1.3023,1.3056,1.3069,1.3077,1.31,1.31,1.312,1.3127,1.3153,1.3168,1.3159,1.3202,1.32,1.3203,1.3191,1.3193,1.3193,1.3189,1.3165,0,0,0,0,0,1.2926,1.2949,1.2981,1.3005,1.3016,1.304,1.3055,1.3067,1.309,1.31,1.312,1.3142,1.3165,1.318,1.3202,1.323,1.3236,1.324,1.3241,1.3241,1.3243,1.3258,1.326,1.324,1.324,1.324,0,0,1.2927,1.2951,1.2964,1.3003,1.3022,1.3044,1.3048,1.3072,1.3089,1.3103,1.3131,1.3147,1.3173,1.32,1.3213,1.3213,1.325,1.3243,1.3243,1.3245,1.3259,1.3261,1.3263,1.324,1.324,1.324,0,0,1.294,1.2961,1.2983,1.3003,1.3032,1.3048,1.3053,1.3084,1.3095,1.3124,1.3135,1.3154,1.3193,1.3211,1.3225,1.3245,1.3252,1.3252,1.3256,1.327,1.3271,1.3273,1.3279,1.3282,1.3254,1.3254,1.3254,0,1.2938,1.2974,1.2993,1.3017,1.3033,1.3048,1.307,1.3087,1.3122,1.3132,1.3131,1.3181,1.3199,1.3231,1.3236,1.3247,1.3253,1.3249,1.327,1.3272,1.3273,1.328,1.3282,1.3254,1.3254,1.3254,1.3254,0,1.2969,1.2993,1.3007,1.3041,1.3059,1.3081,1.3104,1.3119,1.3129,1.3145,1.3173,1.3196,1.3223,1.3231,1.3241,1.3264,1.3263,1.3266,1.3265,1.3275,1.3281,1.3283,1.3253,1.3254,1.3254,1.3254,0,0,1.2975,1.302,1.3024,1.304,1.3073,1.3092,1.3114,1.3142,1.3154,1.3177,1.3196,1.3229,1.3231,1.3247,1.3259,1.3272,1.3285,1.3273,1.3274,1.3274,1.3311,1.3309,1.3311,1.329,1.3291,1.3291,1.3309,0,1.2992,1.3035,1.3053,1.3086,1.3108,1.3123,1.3142,1.3164,1.3179,1.3199,1.3216,1.3238,1.3241,1.325,1.3263,1.3281,1.3293,1.328,1.3307,1.3307,1.3299,1.3315,1.3312,1.3328,1.3311,1.3312,1.3312,0,1.3018,1.3042,1.3078,1.3108,1.3118,1.3136,1.3162,1.3182,1.3206,1.3216,1.3234,1.3245,1.3268,1.3266,1.3297,1.3288,1.33,1.331,1.3311,1.3314,1.331,1.3317,1.3333,1.3335,1.3316,1.3316,1.3316,0,1.3018,1.306,1.3086,1.3099,1.3135,1.3147,1.3162,1.3186,1.3202,1.3224,1.3234,1.3259,1.3272,1.3291,1.3308,1.3304,1.3337,1.3336,1.3345,1.3345,1.3351,1.335,1.3369,1.336,1.336,1.336,1.336,0,1.3035,1.3056,1.3087,1.3103,1.3127,1.3147,1.317,1.3186,1.3207,1.3226,1.324,1.3257,1.3279,1.3299,1.3312,1.3336,1.3342,1.335,1.3353,1.3348,1.3347,1.3356,1.3355,1.336,1.336,1.336,1.336,0,1.3039,1.3061,1.3091,1.3122,1.3131,1.3147,1.3173,1.3189,1.3205,1.3229,1.3235,1.326,1.3284,1.3303,1.3334,1.3343,1.3367,1.3371,1.3359,1.3361,1.3368,1.3367,1.3393,1.3397,1.3385,1.3385,1.3385,0,1.3048,1.3065,1.3099,1.3113,1.3129,1.3151,1.3167,1.3187,1.3203,1.3232,1.3244,1.3269,1.329,1.3327,1.3347,1.337,1.3374,1.3382,1.3378,1.3373,1.3374,1.3372,1.3374,1.3382,1.3382,1.3382,1.3382,0,1.3062,1.3072,1.3095,1.3122,1.314,1.3162,1.3184,1.3194,1.3218,1.3235,1.326,1.3276,1.3308,1.3332,1.3358,1.3372,1.3381,1.3383,1.3386,1.3381,1.3374,1.3377,1.3359,1.3382,1.3382,1.3382,1.3382,1.3382,1.3069,1.3084,1.3111,1.3135,1.3154,1.3174,1.3191,1.3209,1.323,1.3258,1.3269,1.3294,1.3317,1.3353,1.3367,1.3387,1.3387,1.3392,1.3393,1.3394,1.3393,1.3371,1.3391,1.3391,1.3391,1.3391,1.3392,0,1.3083,1.3101,1.3124,1.3154,1.3173,1.3181,1.3205,1.322,1.3243,1.3265,1.3285,1.3313,1.3337,1.3359,1.3383,1.3394,1.3399,1.34,1.3399,1.3402,1.3392,1.3386,1.3396,1.3396,1.3396,1.3396,1.3396,1.3396,1.3093,1.3119,1.3132,1.3167,1.3184,1.321,1.3223,1.3242,1.3259,1.329,1.331,1.3325,1.3346,1.3372,1.3393,1.3399,1.3407,1.3407,1.3414,1.3403,1.3403,1.3402,1.3397,1.3409,1.3409,1.3422,1.3422,1.3423]},{"header":{"parameterUnit":"m.s-1","parameterCategory":1,"la1":30.2991,"la2":30.254,"lo1":-89.0895,"lo2":-89.0444,"dy":0.0017,"dx":0.0017,"nx":28,"ny":28,"refTime":"2025-08-22T03:00:00:Z","depth":0,"parameterNumber":3,"parameterNumberName":"V-component_of_WINDS"},"data":[0,0,0,0,0,0,0,0,0,0,0,0,0,0,0,0,0,0,0,0,0,0,0,0,0,0,0,0,0,0,0,0,0,0,0,0,0,0,0,0,0,0,0,0,0,0,0,0,0,0,0,0,0,0,0,0,0,0,3.3977,3.3977,0,3.3966,3.3966,3.3966,3.3953,3.3953,3.3952,3.3952,3.394,3.394,3.3939,0,0,0,0,0,0,0,0,0,0,0,0,0,3.3986,3.3986,3.3977,3.3977,3.3977,3.3966,3.3966,3.3966,3.3953,3.3953,3.3952,3.3952,3.394,3.394,3.3939,0,0,0,0,0,0,0,0,0,0,0,0,0,3.398,3.3986,3.3977,3.3969,3.3968,3.3966,3.3966,3.3966,3.3953,3.3953,3.3952,3.3952,3.394,3.394,3.3939,3.3944,0,0,3.3939,3.3939,0,0,0,0,0,0,0,0,3.398,3.3979,3.3971,3.397,3.3969,3.396,3.3964,3.3958,3.3953,3.3959,3.3952,3.3952,3.3947,3.3946,3.3944,3.3943,3.3942,3.3939,3.3938,3.3938,3.3938,0,0,0,0,0,0,0,3.398,3.398,3.3973,3.397,3.3969,3.3966,3.3964,3.3963,3.3954,3.3958,3.3957,3.3956,3.3946,3.3945,3.3944,3.3942,3.3939,3.3938,3.3938,3.3938,3.3942,3.3942,0,0,0,0,0,0,3.3982,3.398,3.3973,3.3972,3.3974,3.3966,3.3964,3.3963,3.3954,3.3953,3.3956,3.3956,3.3945,3.3944,3.3944,3.3947,3.3938,3.3938,3.3938,3.3942,3.3942,3.3943,0,0,0,0,0,0,3.3983,3.3982,3.3974,3.3976,3.3975,3.3966,3.3965,3.3963,3.3962,3.3953,3.3951,3.3956,3.3945,3.3944,3.3943,3.3946,3.3938,3.3938,3.3942,3.3942,3.3942,3.3954,0,0,0,0,0,0,3.3983,3.3982,3.3984,3.3976,3.3975,3.3974,3.3965,3.3963,3.3962,3.396,3.3953,3.3951,3.3945,3.3944,3.3943,3.3946,3.3938,3.3941,3.3942,3.3942,3.3954,3.3955,3.3956,0,0,0,0,0,3.3983,3.3988,3.3984,3.3983,3.3977,3.3974,3.3973,3.3966,3.3962,3.3963,3.3958,3.3951,3.3946,3.3944,3.3943,3.3946,3.3941,3.3942,3.3942,3.3953,3.3955,3.3956,0,0,0,0,0,0,3.3996,3.3987,3.3982,3.3985,3.398,3.3972,3.3974,3.3968,3.3965,3.3964,3.3955,3.3953,3.3954,3.395,3.3947,3.3949,3.3943,3.3943,3.3951,3.3953,3.3954,3.3955,3.3937,0,0,0,0,0,3.3999,3.3998,3.399,3.3993,3.3991,3.3983,3.3981,3.3976,3.3971,3.3969,3.3964,3.3959,3.3956,3.3954,3.3951,3.3953,3.3951,3.3954,3.3956,3.3957,3.3957,3.3957,3.3958,3.3944,3.3944,3.3944,0,0,3.4005,3.4,3.4,3.3995,3.3991,3.399,3.3981,3.3981,3.3979,3.3969,3.3968,3.3964,3.3958,3.3958,3.3958,3.3955,3.3961,3.3958,3.3959,3.3958,3.3958,3.3959,3.396,3.3945,3.3945,3.3945,0,0,3.4016,3.4013,3.4014,3.401,3.4004,3.3999,3.3999,3.3992,3.3988,3.3987,3.3979,3.3977,3.3973,3.3969,3.3966,3.3974,3.3968,3.3973,3.398,3.398,3.3981,3.3982,3.3984,3.3985,3.3974,3.3974,3.3974,0,3.4025,3.4023,3.4015,3.4015,3.4012,3.4003,3.4004,3.4001,3.3994,3.3992,3.3989,3.3982,3.3978,3.3977,3.3978,3.3977,3.3976,3.3974,3.3982,3.3982,3.3983,3.3985,3.3986,3.3974,3.3974,3.3974,3.3974,0,3.4033,3.4032,3.4034,3.4027,3.4025,3.4026,3.4017,3.4016,3.4011,3.4005,3.4004,3.3998,3.3993,3.3992,3.3987,3.399,3.3988,3.3983,3.3977,3.3985,3.3987,3.3987,3.3975,3.3975,3.3975,3.3975,0,0,3.4052,3.4041,3.4042,3.4038,3.4031,3.403,3.4029,3.4024,3.4023,3.4019,3.4017,3.4013,3.4008,3.4005,3.4,3.3999,3.4005,3.3994,3.3994,3.3996,3.4007,3.401,3.4011,3.4001,3.4001,3.4001,3.4007,0,3.406,3.4059,3.4052,3.4053,3.4051,3.4042,3.4041,3.4036,3.4031,3.4028,3.4022,3.4019,3.4014,3.4012,3.4011,3.4005,3.4007,3.4004,3.3999,3.3999,3.4,3.4012,3.4016,3.4022,3.4008,3.4008,3.4008,0,3.4071,3.4067,3.4067,3.4059,3.4058,3.4058,3.4052,3.405,3.4044,3.404,3.4036,3.403,3.4028,3.4022,3.4019,3.4017,3.4014,3.4011,3.4011,3.401,3.4004,3.4011,3.4023,3.4024,3.4009,3.4009,3.4009,0,3.4083,3.4078,3.4077,3.4075,3.4066,3.4066,3.4062,3.4055,3.4053,3.4048,3.4046,3.4041,3.4038,3.4034,3.4026,3.4023,3.4023,3.4017,3.4019,3.4019,3.4019,3.4019,3.4031,3.4019,3.4019,3.4019,3.4018,0,3.4093,3.4094,3.4083,3.4082,3.4082,3.4074,3.4074,3.4069,3.4063,3.4061,3.4053,3.4051,3.4041,3.4037,3.4031,3.4028,3.4027,3.4024,3.4022,3.4024,3.4025,3.4022,3.4021,3.4019,3.4019,3.4019,3.4019,0,3.4107,3.41,3.4099,3.409,3.4088,3.4088,3.408,3.4079,3.4073,3.407,3.4069,3.406,3.4055,3.4047,3.404,3.4036,3.4035,3.4032,3.4037,3.4036,3.4038,3.4038,3.4048,3.4049,3.4036,3.4037,3.4037,0,3.4114,3.4114,3.4105,3.4103,3.41,3.4097,3.4094,3.4086,3.4083,3.4075,3.4075,3.407,3.4065,3.4059,3.4051,3.4045,3.4042,3.4046,3.4041,3.4043,3.4041,3.4041,3.4041,3.4047,3.4047,3.4047,3.4047,0,3.4126,3.4123,3.4119,3.4115,3.4112,3.4107,3.4102,3.4101,3.4091,3.4089,3.4084,3.4081,3.4074,3.4068,3.4062,3.4057,3.405,3.4049,3.4049,3.4051,3.4054,3.4052,3.4039,3.4049,3.4049,3.4049,3.4049,3.4048,3.4136,3.4136,3.4129,3.4126,3.4121,3.4117,3.4115,3.4109,3.4105,3.4099,3.4094,3.4089,3.4082,3.4073,3.4068,3.4064,3.4061,3.4061,3.4061,3.4061,3.4062,3.4055,3.4063,3.4063,3.4063,3.4063,3.4063,0,3.4148,3.4143,3.414,3.4133,3.413,3.4125,3.4119,3.4117,3.4113,3.4107,3.4103,3.4097,3.4092,3.4083,3.4077,3.4075,3.4072,3.4074,3.4074,3.4073,3.4065,3.4065,3.4077,3.4077,3.4077,3.4077,3.4077,3.4077,3.4153,3.4152,3.4147,3.4143,3.4138,3.4134,3.4131,3.4127,3.4122,3.4116,3.4112,3.4106,3.4099,3.4092,3.4087,3.4084,3.4082,3.4085,3.4081,3.4075,3.4073,3.4072,3.4072,3.4085,3.4085,3.4089,3.4089,3.4089]}]]